Location: Newark
(33.6333°S, 78.8500°W)
Time: 13:38:24
(UTC+00:00)

Vanguard 1 - Pass Details

Date: 26 September 2019
Orbit: 653 x 3830 km, 34.2° (Epoch: 20 October)

Event Time Altitude Azimuth Distance (km) Brightness Sun altitude
Rises 01:25:02 0° 265° (W) 4,168 14.4 -27.5°
Reaches altitude 10° 01:27:51 10° 277° (W) 3,531 13.6 -28.0°
Maximum altitude 01:35:39 29° 333° (NNW) 3,160 12.6 -29.5°
Enters shadow 01:43:00 19° 12° (NNE) 4,497 13.1 -30.9°
